Angleton, TX

1:42 PM CDT on June 27, 2017 (GMT -0500)
Brazoria County

Weather History for KLBX - January, 2013

Change the Weather History Date:

Thursday, January 3, 2013

  Actual Average Record
Temperature  
Mean Temperature 47 °F -  
Max Temperature 53 °F 61 °F 80 °F (2009)
Min Temperature 41 °F 44 °F 24 °F (2002)
Degree Days  
Heating Degree Days 18    
Moisture  
Dew Point 33 °F    
Average Humidity 61    
Maximum Humidity 79    
Minimum Humidity 43    
Precipitation  
Precipitation 0.00 in - - ()
Sea Level Pressure  
Sea Level Pressure 30.34 in    
Wind  
Wind Speed 11 mph (NNE)    
Max Wind Speed 16 mph    
Max Gust Speed 23 mph    
Visibility 10 miles    
Events      
Averages and records for this station are not official NWS values.
T = Trace of Precipitation, MM = Missing Value Source: NWS Daily Summary

Daily Weather History Graph

Daily Weather History Graph

Search for Another Location

Airport or City:

Trip Planner

Search our weather history database for the weather conditions in past years. The results will help you decide how hot, cold, wet, or windy it might be!

Date:

Astronomy

Jan. 03, 2013 Rise Set
Actual Time 7:16 AM CST 5:36 PM CST
Civil Twilight 6:50 AM CST 6:02 PM CST
Nautical Twilight 6:20 AM CST 6:32 PM CST
Astronomical Twilight 5:51 AM CST 7:01 PM CST
Moon 11:39 PM CST (1/3) 10:58 AM CST (1/3)
Length of Visible Light 11h 12m
Length of Day
10h 20m
Waning Gibbous, 65% of the Moon is Illuminated
Jan 3
Waning Gibbous
Jan 4
Last Quarter
Jan 11
New
Jan 18
First Quarter
Jan 26
Full

Hourly Weather History & Observations

Time (CST) Temp. Windchill Dew Point Humidity Pressure Visibility Wind Dir Wind Speed Gust Speed Precip Events Conditions
12:53 AM 42.1 °F 35.7 °F 36.0 °F 79% 30.27 in 10.0 mi North 11.5 mph - N/A   Overcast
1:53 AM 42.1 °F 36.1 °F 36.0 °F 79% 30.28 in 10.0 mi North 10.4 mph - N/A   Overcast
2:53 AM 42.1 °F 35.7 °F 35.1 °F 76% 30.30 in 10.0 mi North 11.5 mph - N/A   Overcast
3:53 AM 42.1 °F 34.9 °F 35.1 °F 76% 30.30 in 10.0 mi NNE 13.8 mph - N/A   Overcast
4:53 AM 41.0 °F 33.1 °F 34.0 °F 76% 30.30 in 10.0 mi North 15.0 mph - N/A   Overcast
6:53 AM 41.0 °F 34.3 °F 33.1 °F 73% 30.33 in 10.0 mi NNE 11.5 mph - N/A   Overcast
7:53 AM 41.0 °F 35.2 °F 33.1 °F 73% 30.36 in 10.0 mi NNE 9.2 mph - N/A   Mostly Cloudy
8:53 AM 42.1 °F 34.2 °F 33.1 °F 70% 30.37 in 10.0 mi NNE 16.1 mph - N/A   Overcast
9:53 AM 44.1 °F 37.1 °F 34.0 °F 68% 30.39 in 10.0 mi NNE 15.0 mph - N/A   Overcast
10:53 AM 46.9 °F - 34.0 °F 61% 30.39 in 10.0 mi NNE 13.8 mph - N/A   Overcast
11:53 AM 48.0 °F - 32.0 °F 54% 30.35 in 10.0 mi NE 16.1 mph 23.0 mph N/A   Overcast
12:53 PM 51.1 °F - 32.0 °F 48% 30.33 in 10.0 mi North 11.5 mph - N/A   Overcast
1:53 PM 53.1 °F - 33.1 °F 47% 30.32 in 10.0 mi North 10.4 mph - N/A   Overcast
2:53 PM 53.1 °F - 32.0 °F 45% 30.32 in 10.0 mi North 10.4 mph - N/A   Overcast
3:53 PM 52.0 °F - 30.0 °F 43% 30.33 in 10.0 mi North 11.5 mph - N/A   Overcast
4:53 PM 51.1 °F - 28.9 °F 43% 30.35 in 10.0 mi NNW 6.9 mph - N/A   Overcast
5:53 PM 51.1 °F - 32.0 °F 48% 30.35 in 10.0 mi North 4.6 mph - N/A   Overcast
6:53 PM 51.1 °F - 32.0 °F 48% 30.38 in 10.0 mi North 6.9 mph - N/A   Overcast
7:53 PM 50.0 °F - 33.1 °F 52% 30.39 in 10.0 mi North 8.1 mph - N/A   Overcast
8:53 PM 50.0 °F - 34.0 °F 54% 30.38 in 10.0 mi North 9.2 mph - N/A   Overcast
9:53 PM 48.9 °F - 34.0 °F 56% 30.40 in 10.0 mi North 8.1 mph - N/A   Overcast
10:53 PM 48.0 °F - 34.0 °F 58% 30.38 in 10.0 mi NNE 6.9 mph - N/A   Mostly Cloudy
11:53 PM 46.0 °F 43.9 °F 35.1 °F 66% 30.35 in 10.0 mi NE 4.6 mph - N/A   Partly Cloudy